• In Hungary
  • List of Countries
  • For 7 days
  • Water Temperature
  • Satellite Maps
  • Weather Map
  • News
  • Weather Widgets
  • user-avatar
    Login

    Hourly Weather Yugovo

    Today, 24 October, Tuesday

    Time Temperature Precipitation Wind Pressure Humidity
    00:00 -2°C° 0.1 mm 2 mps 664 mmHg 86%
    01:00 -2°C° 0.1 mm 2 mps 664 mmHg 86%
    02:00 -1°C° 0 mm 1 mps 664 mmHg 86%
    03:00 -1°C° 0 mm 1 mps 664 mmHg 87%
    04:00 -1°C° 0 mm 1 mps 664 mmHg 87%
    05:00 -1°C° 0 mm 1 mps 664 mmHg 88%
    06:00 -2°C° 0 mm 1 mps 664 mmHg 89%
    07:00 -2°C° 0 mm 1 mps 664 mmHg 91%
    08:00 -1°C° 0 mm 1 mps 664 mmHg 84%
    09:00 +1°C° 0 mm 1 mps 664 mmHg 77%
    10:00 +2°C° 0 mm 1 mps 665 mmHg 69%
    11:00 +3°C° 0 mm 1 mps 664 mmHg 66%
    12:00 +4°C° 0 mm 1 mps 664 mmHg 63%
    13:00 +6°C° 0 mm 1 mps 664 mmHg 60%
    14:00 +5°C° 0 mm 1 mps 663 mmHg 64%
    15:00 +4°C° 0 mm 1 mps 662 mmHg 68%
    16:00 +4°C° 0 mm 1 mps 662 mmHg 72%
    17:00 +2°C° 0 mm 1 mps 662 mmHg 77%
    18:00 +1°C° 0 mm 1 mps 662 mmHg 81%
    19:00 0°C° 0 mm 1 mps 661 mmHg 85%
    20:00 -2°C° 0 mm 2 mps 661 mmHg 84%
    21:00 -2°C° 0 mm 2 mps 661 mmHg 82%
    22:00 -2°C° 0 mm 2 mps 661 mmHg 81%
    23:00 -2°C° 0 mm 2 mps 661 mmHg 79%

    Tomorrow, 25 October, Wednesday

    Time Temperature Precipitation Wind Pressure Humidity
    00:00 -2°C° 0 mm 2 mps 661 mmHg 78%
    01:00 -2°C° 0 mm 2 mps 660 mmHg 77%
    02:00 -2°C° 0 mm 2 mps 660 mmHg 76%
    03:00 -2°C° 0 mm 2 mps 660 mmHg 75%
    04:00 -2°C° 0 mm 2 mps 659 mmHg 75%
    05:00 -2°C° 0 mm 2 mps 659 mmHg 74%
    06:00 -2°C° 0 mm 2 mps 660 mmHg 74%
    07:00 -2°C° 0 mm 2 mps 660 mmHg 73%
    08:00 +2°C° 0 mm 1 mps 660 mmHg 65%
    09:00 +5°C° 0 mm 1 mps 661 mmHg 58%
    10:00 +7°C° 0 mm 1 mps 661 mmHg 50%
    11:00 +8°C° 0 mm 1 mps 661 mmHg 48%
    12:00 +9°C° 0 mm 1 mps 660 mmHg 45%
    13:00 +10°C° 0 mm 1 mps 660 mmHg 42%
    14:00 +9°C° 0 mm 1 mps 660 mmHg 47%
    15:00 +8°C° 0 mm 1 mps 659 mmHg 53%
    16:00 +7°C° 0 mm 1 mps 659 mmHg 58%
    17:00 +5°C° 0 mm 1 mps 658 mmHg 61%
    18:00 +3°C° 0 mm 2 mps 658 mmHg 63%
    19:00 +2°C° 0 mm 2 mps 658 mmHg 66%
    20:00 +2°C° 0 mm 2 mps 658 mmHg 65%
    21:00 +2°C° 0 mm 2 mps 657 mmHg 65%
    22:00 +1°C° 0 mm 2 mps 657 mmHg 65%
    23:00 +1°C° 0 mm 2 mps 657 mmHg 65%

    Day after tomorrow, 26 October, Thursday

    Time Temperature Precipitation Wind Pressure Humidity
    00:00 +1°C° 0 mm 2 mps 657 mmHg 65%
    01:00 +1°C° 0 mm 2 mps 656 mmHg 66%
    02:00 +1°C° 0 mm 2 mps 656 mmHg 72%
    03:00 -1°C° 0 mm 3 mps 656 mmHg 78%
    04:00 -2°C° 0 mm 3 mps 655 mmHg 84%
    05:00 -2°C° 0.1 mm 3 mps 655 mmHg 86%
    06:00 -4°C° 0.1 mm 3 mps 656 mmHg 87%
    07:00 -4°C° 0.1 mm 3 mps 656 mmHg 89%
    08:00 -5°C° 0.2 mm 3 mps 656 mmHg 87%
    09:00 -5°C° 0.2 mm 3 mps 656 mmHg 85%
    10:00 -5°C° 0.2 mm 4 mps 656 mmHg 83%
    11:00 -7°C° 0.4 mm 4 mps 656 mmHg 82%
    12:00 -7°C° 0.4 mm 4 mps 656 mmHg 81%
    13:00 -7°C° 0.4 mm 4 mps 656 mmHg 80%
    14:00 -6°C° 0.5 mm 3 mps 656 mmHg 81%
    15:00 -7°C° 0.5 mm 3 mps 657 mmHg 81%
    16:00 -6°C° 0.5 mm 2 mps 657 mmHg 81%
    17:00 -7°C° 0.2 mm 2 mps 658 mmHg 83%
    18:00 -6°C° 0.2 mm 1 mps 659 mmHg 85%
    19:00 -6°C° 0.2 mm 1 mps 659 mmHg 87%
    20:00 -6°C° 0.1 mm 1 mps 660 mmHg 86%
    21:00 -6°C° 0.1 mm 1 mps 660 mmHg 85%
    22:00 -6°C° 0.1 mm 1 mps 661 mmHg 84%
    23:00 -6°C° 0.1 mm 1 mps 661 mmHg 84%

    27 October, Friday

    Time Temperature Precipitation Wind Pressure Humidity
    00:00 -7°C° 0.1 mm 1 mps 661 mmHg 84%
    01:00 -7°C° 0.1 mm 1 mps 662 mmHg 84%
    02:00 -8°C° 0 mm 2 mps 662 mmHg 82%
    03:00 -9°C° 0 mm 2 mps 662 mmHg 79%
    04:00 -10°C° 0 mm 2 mps 662 mmHg 77%
    05:00 -9°C° 0 mm 2 mps 662 mmHg 72%
    06:00 -9°C° 0 mm 2 mps 663 mmHg 67%
    07:00 -9°C° 0 mm 2 mps 663 mmHg 62%
    08:00 -8°C° 0 mm 2 mps 664 mmHg 60%
    09:00 -7°C° 0 mm 3 mps 664 mmHg 57%
    10:00 -6°C° 0 mm 3 mps 664 mmHg 54%
    11:00 -6°C° 0 mm 3 mps 665 mmHg 54%
    12:00 -5°C° 0 mm 3 mps 665 mmHg 53%
    13:00 -5°C° 0 mm 3 mps 665 mmHg 53%
    14:00 -5°C° 0 mm 3 mps 665 mmHg 55%
    15:00 -4°C° 0 mm 2 mps 665 mmHg 58%
    16:00 -2°C° 0 mm 1 mps 665 mmHg 60%
    17:00 -3°C° 0 mm 1 mps 665 mmHg 65%
    18:00 -4°C° 0 mm 1 mps 666 mmHg 69%
    19:00 -6°C° 0 mm 1 mps 666 mmHg 74%
    20:00 -6°C° 0 mm 1 mps 666 mmHg 75%
    21:00 -7°C° 0 mm 1 mps 667 mmHg 75%
    22:00 -7°C° 0 mm 1 mps 667 mmHg 76%
    23:00 -7°C° 0.1 mm 1 mps 667 mmHg 76%

    28 October, Saturday

    Time Temperature Precipitation Wind Pressure Humidity
    00:00 -7°C° 0.1 mm 1 mps 667 mmHg 76%
    01:00 -7°C° 0.1 mm 1 mps 667 mmHg 76%
    02:00 -7°C° 0 mm 1 mps 667 mmHg 76%
    03:00 -8°C° 0 mm 1 mps 667 mmHg 77%
    04:00 -8°C° 0 mm 1 mps 667 mmHg 77%
    05:00 -8°C° 0 mm 1 mps 667 mmHg 77%
    06:00 -8°C° 0 mm 1 mps 667 mmHg 76%
    07:00 -8°C° 0 mm 1 mps 667 mmHg 75%
    08:00 -6°C° 0 mm 1 mps 667 mmHg 67%
    09:00 -3°C° 0 mm 1 mps 667 mmHg 59%
    10:00 -3°C° 0 mm 2 mps 668 mmHg 51%
    11:00 -2°C° 0 mm 2 mps 667 mmHg 49%
    12:00 +1°C° 0 mm 2 mps 667 mmHg 47%
    13:00 +2°C° 0 mm 2 mps 666 mmHg 45%
    14:00 +1°C° 0 mm 2 mps 666 mmHg 50%
    15:00 -1°C° 0 mm 2 mps 665 mmHg 55%
    16:00 -2°C° 0 mm 2 mps 664 mmHg 60%
    17:00 -3°C° 0 mm 2 mps 664 mmHg 63%
    18:00 -4°C° 0 mm 2 mps 664 mmHg 66%
    19:00 -6°C° 0 mm 3 mps 663 mmHg 69%
    20:00 -7°C° 0 mm 3 mps 663 mmHg 68%
    21:00 -7°C° 0 mm 3 mps 663 mmHg 66%
    22:00 -7°C° 0 mm 3 mps 662 mmHg 65%
    23:00 -7°C° 0 mm 3 mps 662 mmHg 64%

    29 October, Sunday

    Time Temperature Precipitation Wind Pressure Humidity
    00:00 -7°C° 0 mm 3 mps 661 mmHg 63%
    01:00 -7°C° 0 mm 3 mps 661 mmHg 62%
    02:00 -7°C° 0 mm 3 mps 661 mmHg 62%
    03:00 -7°C° 0 mm 3 mps 660 mmHg 61%
    04:00 -7°C° 0 mm 3 mps 660 mmHg 61%
    05:00 -7°C° 0 mm 3 mps 660 mmHg 60%
    06:00 -7°C° 0 mm 3 mps 659 mmHg 60%
    07:00 -7°C° 0 mm 3 mps 659 mmHg 59%
    08:00 -4°C° 0 mm 2 mps 659 mmHg 53%
    09:00 -2°C° 0 mm 2 mps 659 mmHg 48%
    10:00 +1°C° 0 mm 2 mps 659 mmHg 42%
    11:00 +3°C° 0 mm 2 mps 659 mmHg 41%
    12:00 +4°C° 0 mm 2 mps 659 mmHg 40%
    13:00 +6°C° 0 mm 1 mps 659 mmHg 39%
    14:00 +5°C° 0 mm 1 mps 658 mmHg 45%
    15:00 +3°C° 0 mm 1 mps 658 mmHg 52%
    16:00 +2°C° 0 mm 1 mps 657 mmHg 58%
    17:00 +1°C° 0 mm 1 mps 657 mmHg 60%
    18:00 0°C° 0 mm 1 mps 657 mmHg 62%
    19:00 -1°C° 0 mm 1 mps 657 mmHg 64%
    20:00 -1°C° 0 mm 1 mps 657 mmHg 66%
    21:00 -2°C° 0 mm 1 mps 657 mmHg 67%
    22:00 -4°C° 0 mm 2 mps 657 mmHg 68%
    23:00 -4°C° 0 mm 2 mps 657 mmHg 71%

    30 October, Monday

    Time Temperature Precipitation Wind Pressure Humidity
    00:00 -4°C° 0 mm 2 mps 657 mmHg 74%
    01:00 -4°C° 0 mm 2 mps 658 mmHg 77%
    02:00 -4°C° 0.4 mm 2 mps 658 mmHg 82%
    03:00 -4°C° 0.4 mm 2 mps 658 mmHg 88%
    04:00 -4°C° 0.4 mm 2 mps 658 mmHg 94%
    05:00 -6°C° 0.8 mm 3 mps 658 mmHg 93%
    06:00 -6°C° 0.8 mm 3 mps 658 mmHg 93%
    07:00 -7°C° 0.8 mm 4 mps 658 mmHg 93%
    08:00 -8°C° 0.6 mm 4 mps 658 mmHg 91%
    09:00 -7°C° 0.6 mm 3 mps 659 mmHg 89%
    10:00 -7°C° 0.6 mm 3 mps 659 mmHg 87%
    11:00 -6°C° 0.3 mm 2 mps 659 mmHg 84%
    12:00 -6°C° 0.3 mm 2 mps 659 mmHg 82%
    13:00 -6°C° 0.3 mm 2 mps 659 mmHg 79%
    14:00 -6°C° 0.1 mm 2 mps 659 mmHg 80%
    15:00 -4°C° 0.1 mm 1 mps 660 mmHg 82%
    16:00 -6°C° 0.1 mm 1 mps 660 mmHg 83%
    17:00 -6°C° 0.2 mm 1 mps 660 mmHg 87%
    18:00 -7°C° 0.2 mm 1 mps 660 mmHg 90%
    19:00 -7°C° 0.2 mm 1 mps 661 mmHg 94%
    20:00 -8°C° 0.3 mm 1 mps 661 mmHg 94%
    21:00 -8°C° 0.3 mm 1 mps 661 mmHg 94%
    22:00 -8°C° 0.3 mm 1 mps 661 mmHg 95%
    23:00 -8°C° 0.2 mm 1 mps 661 mmHg 94%
    Show more